Dewpoint
21 21 18 17 12 15 20 15 10 11 10 10 5 4 2 0 4 4 9 10 8 4 10 7 29 39 41 44 46 48 49 50 52 54 52 52 53 53 55 58 59 59 59 61 62 63 63 63 65 66 65 65 65 65 66 66 66 67 66 66 66 67 67 66 65 65 65 64 65 66 66 66 67 66 67 67 69 68 68 67 67 66 68 68 67 66
18 18 16 15 17 14 15 18 19 15 11 7 3 2 0 0 3 6 10 12 13 23 27 28 33 40 43 45 46 47 48 48 50 52 53 52 51 53 57 57 59 61 61 60 62 63 63 63 65 65 65 65 64 64 65 65 65 66 67 66 66 67 67 67 67 66 66 66 66 65 65 67 65 66 67 66 66 67 67 67 68 68 67 67 67 67
19 14 15 13 15 17 18 20 20 18 14 8 5 3 3 3 5 10 11 14 12 18 22 26 32 39 43 45 46 47 47 50 50 51 52 52 51 52 57 58 59 61 61 61 62 63 64 64 64 64 64 64 65 64 65 65 65 65 66 66 66 67 67 67 68 67 67 68 67 67 67 66 66 67 67 66 67 68 68 69 68 67 68 67 67 67
18 11 11 13 14 20 21 20 22 19 17 11 7 6 4 2 6 8 17 19 19 20 23 27 33 41 44 45 46 47 47 49 49 49 51 53 54 55 56 57 58 58 60 61 62 62 63 64 64 64 63 64 64 64 64 64 64 65 65 66 66 66 66 66 67 67 67 66 65 66 66 68 69 68 68 69 69 69 69 68 69 66 67 67 67 65
8 9 12 16 23 22 22 18 18 18 12 15 9 4 2 3 4 7 14 18 23 28 29 29 33 36 41 41 43 46 47 46 47 48 51 54 54 55 56 57 58 58 59 59 61 61 61 61 62 62 63 63 63 63 63 63 63 63 64 65 65 65 66 66 67 67 68 67 66 66 65 66 66 67 66 67 67 67 66 66 66 67 67 67 67 67
10 8 19 22 19 14 16 17 16 17 12 12 13 5 2 5 6 13 19 21 25 28 29 23 18 30 41 42 43 44 45 45 46 46 49 52 54 54 56 57 57 58 58 59 59 60 61 61 61 62 61 62 62 62 63 64 64 63 64 64 65 65 66 65 66 66 66 66 65 66 65 64 64 64 65 64 65 66 65 64 67 67 67 66 66 67
12 20 22 17 14 15 14 13 14 14 12 15 12 10 6 4 9 14 18 16 19 20 26 31 19 24 36 40 43 44 43 44 46 47 50 52 53 53 54 56 56 57 58 60 60 59 60 60 60 60 61 61 61 62 63 63 63 63 63 63 63 64 64 65 65 66 66 66 66 66 65 65 64 63 64 66 67 67 67 66 66 67 67 67 67 67
14 22 18 17 16 14 14 13 14 12 10 10 11 11 9 7 9 12 14 16 17 18 26 26 18 22 32 39 43 43 43 43 44 46 49 50 53 54 55 56 57 57 58 58 58 58 59 59 59 59 60 60 60 61 62 63 64 63 63 63 63 64 64 65 65 65 65 66 67 66 65 64 64 64 65 66 65 66 67 66 66 66 67 66 67 67
23 22 17 17 16 12 12 12 14 12 10 10 11 9 9 7 8 9 10 13 17 22 18 21 19 22 25 39 42 42 41 43 43 46 49 51 53 54 55 56 55 56 56 56 56 57 58 58 59 59 60 61 61 61 61 62 62 63 64 64 64 64 64 65 65 65 65 65 65 65 64 63 65 66 66 66 66 66 66 65 65 65 65 66 66 66
21 21 18 17 14 11 11 12 15 14 13 13 12 11 9 8 8 9 10 10 17 17 15 14 18 16 30 37 39 40 40 42 44 47 50 51 52 53 53 54 54 54 55 56 56 56 57 58 58 60 60 60 61 61 61 62 62 63 63 63 63 63 64 65 65 65 65 64 65 64 64 64 65 66 66 67 66 65 65 64 64 65 65 65 66 67
19 24 22 18 15 13 12 12 14 15 13 13 12 11 11 9 11 14 14 15 18 13 14 11 18 18 22 33 38 39 41 43 46 48 50 50 51 51 52 52 52 52 53 54 54 54 55 56 57 57 57 58 59 59 60 61 61 62 62 62 62 63 63 64 64 65 65 64 64 64 64 64 64 65 65 64 64 65 63 64 64 64 64 65 65 66
20 20 20 17 17 13 14 15 14 14 14 13 11 10 8 10 13 18 20 18 14 12 12 16 14 23 18 33 41 45 44 44 46 46 48 50 50 50 51 51 51 51 52 52 52 53 54 54 55 56 56 56 57 57 57 58 59 59 59 60 62 62 63 63 63 64 64 64 64 64 64 64 65 65 64 64 63 62 64 64 64 65 65 65 65 65
20 20 21 20 24 17 17 15 14 14 14 11 10 10 10 9 11 10 12 15 11 12 20 18 20 21 24 36 41 44 45 48 48 49 49 49 49 50 50 50 50 50 50 51 51 51 52 53 53 54 55 55 55 56 56 57 58 58 58 59 59 60 61 61 63 64 64 64 63 63 63 65 65 65 65 64 63 64 63 64 64 64 64 65 64 64
18 18 18 19 20 22 18 13 14 13 13 11 9 9 9 8 9 11 8 15 13 21 21 20 22 19 38 39 44 46 48 49 49 49 49 49 49 49 49 49 49 49 49 50 50 51 51 51 52 53 53 53 54 55 55 56 56 57 57 57 58 58 59 60 61 61 62 63 64 64 64 64 64 64 65 64 64 64 64 64 64 64 64 64 64 64
14 13 16 17 16 19 18 14 13 13 12 11 9 6 11 10 11 12 8 12 13 14 24 28 22 32 32 39 47 49 49 49 48 48 49 49 49 49 48 50 48 49 49 49 49 49 50 51 51 52 52 53 53 54 54 55 55 56 56 56 57 57 58 58 59 60 61 61 62 63 63 64 64 63 64 64 64 64 64 64 65 65 65 64 64 65
11 15 17 17 17 17 16 14 14 12 10 10 8 6 9 11 12 10 16 13 16 21 20 30 30 38 36 47 49 49 48 47 48 48 48 48 48 48 47 47 47 47 48 48 49 49 50 50 51 51 52 52 53 53 54 54 54 55 55 55 56 56 57 57 58 58 59 60 61 62 62 63 63 63 63 63 64 64 66 66 64 64 65 65 66 65
13 16 14 15 14 16 15 14 12 11 13 12 7 8 6 8 7 19 24 32 26 18 23 34 36 41 45 47 47 48 47 47 47 47 47 46 47 47 47 47 47 47 47 48 48 48 49 50 50 50 51 51 52 53 53 53 53 54 54 54 54 55 56 56 57 58 59 60 61 61 62 62 63 63 64 64 65 65 65 64 65 64 64 64 64 64
16 14 15 15 15 16 14 13 14 12 7 10 12 9 15 14 13 19 11 18 16 12 27 32 32 37 38 35 46 46 45 45 45 46 46 46 47 46 46 46 46 47 48 47 47 48 47 48 49 49 49 50 51 52 52 52 53 53 53 54 54 54 55 55 56 57 58 58 59 60 61 62 63 62 63 64 64 64 64 65 65 65 64 63 64 64
15 12 14 14 13 14 16 16 14 12 14 9 7 5 10 14 15 18 15 14 13 15 26 29 32 34 30 37 42 44 44 44 44 45 46 45 45 45 45 45 46 47 46 46 46 47 47 46 47 48 48 48 50 51 52 51 52 53 53 53 53 54 54 54 55 56 57 58 58 59 59 60 61 62 63 63 63 63 62 62 63 62 62 64 64 64
22 14 14 13 12 15 15 14 17 13 14 14 4 9 7 15 16 18 16 16 13 14 24 25 28 29 32 40 43 44 44 44 43 44 44 44 45 45 45 45 45 45 45 45 45 46 46 46 47 47 48 48 49 50 51 52 52 52 52 52 52 53 53 53 54 55 55 56 57 58 59 60 60 61 62 63 63 63 62 62 62 61 63 63 64 64
18 27 13 16 15 14 14 15 14 13 15 12 9 10 9 21 15 11 21 11 10 16 18 23 22 27 36 40 43 45 45 45 44 44 45 44 44 44 44 45 45 45 45 45 45 44 45 46 47 47 48 48 48 49 50 51 51 51 51 51 51 52 52 53 53 53 54 55 56 57 58 59 61 61 62 63 63 62 63 63 62 62 63 63 64 64
15 19 15 19 15 13 13 13 15 12 12 10 11 10 7 12 15 12 15 17 17 14 17 21 21 31 43 44 42 46 46 45 44 45 45 44 44 44 44 44 45 45 45 45 45 45 45 46 46 46 46 46 47 47 49 49 50 50 50 50 50 51 51 52 52 52 53 54 55 56 57 59 60 61 61 62 63 61 61 62 63 63 63 63 63 63
28 22 20 15 16 13 24 29 29 26 16 12 10 8 3 14 14 12 12 16 20 16 20 21 16 33 46 47 45 47 46 45 45 45 44 44 44 43 43 44 44 45 45 45 45 45 45 46 45 45 45 45 46 47 48 48 48 49 50 50 50 50 51 51 52 52 53 54 55 56 57 58 58 58 60 61 62 61 61 62 62 63 63 63 63 63
35 23 17 12 15 25 28 28 28 28 20 14 9 9 7 13 14 15 12 22 12 23 15 18 17 35 45 47 48 47 45 45 45 45 43 43 43 43 43 43 43 44 44 44 44 45 45 45 45 44 44 44 45 46 47 47 47 48 49 49 48 49 50 51 51 51 52 53 54 55 56 56 57 58 58 60 61 61 61 61 62 62 62 63 63 62
24 24 16 17 18 19 22 22 19 19 19 18 21 30 19 10 11 21 18 22 14 20 13 15 9 33 42 45 45 44 43 43 43 43 44 43 43 42 42 42 43 43 43 43 44 44 44 44 44 44 43 43 44 44 46 46 46 47 48 48 48 48 49 49 50 50 51 53 53 55 55 55 55 56 57 57 59 61 61 61 61 62 61 61 62 63
22 32 26 14 16 16 17 18 18 20 20 34 32 28 29 18 24 22 15 20 14 25 23 14 27 39 42 43 43 42 42 42 42 42 42 42 42 41 42 42 42 42 42 42 43 44 44 43 43 44 44 43 43 44 44 45 46 46 47 48 48 47 48 49 49 49 50 52 52 53 54 54 54 54 54 55 57 59 60 60 61 61 61 61 61 62
35 39 38 32 18 16 19 26 36 21 26 23 28 26 29 32 29 26 23 16 12 26 21 19 38 39 38 40 40 41 41 40 40 41 40 40 41 41 41 41 41 41 41 41 42 43 43 43 44 44 44 44 44 44 44 44 45 45 46 48 48 47 48 49 49 49 49 50 51 51 53 53 53 53 53 54 55 57 58 59 60 60 61 61 61 62
35 32 38 39 36 33 34 33 34 27 25 27 28 29 28 33 37 29 17 16 21 22 12 39 40 38 39 40 40 40 41 40 40 40 40 40 41 40 40 40 41 40 40 41 41 42 42 42 43 44 44 44 43 43 44 44 44 45 46 46 46 47 48 49 49 49 48 49 49 50 50 51 52 53 52 53 54 55 57 58 59 60 60 61 61 61
28 30 39 39 36 36 34 33 34 34 34 36 34 33 34 34 33 26 41 40 27 17 12 41 41 40 39 40 40 40 40 39 39 39 40 40 39 39 40 39 39 40 40 40 40 40 40 40 42 43 44 44 44 44 44 44 43 45 45 45 46 46 47 48 49 48 48 47 48 49 49 50 51 51 52 52 52 53 55 56 58 59 60 60 61 61
35 34 39 38 36 37 35 34 33 33 34 33 34 36 37 37 38 38 40 39 39 39 41 40 40 40 40 40 40 40 40 39 39 39 39 39 38 39 38 38 38 39 39 39 39 39 39 40 41 42 43 43 43 43 42 43 42 43 45 45 46 46 47 48 49 49 48 46 47 48 47 48 49 49 50 50 51 52 53 55 57 59 59 60 60 60
38 31 38 37 34 35 37 36 34 35 34 34 33 34 35 36 36 39 40 40 41 42 43 40 38 35 38 38 38 39 39 39 38 38 38 38 38 38 38 38 38 38 38 38 38 38 39 39 39 40 41 42 42 42 42 42 42 44 44 44 45 45 46 47 48 48 47 47 46 47 46 47 48 48 48 49 50 51 51 52 55 57 59 60 60 60
37 33 39 38 31 33 36 37 36 36 36 36 36 36 37 38 37 38 36 41 41 39 39 38 36 34 36 38 38 38 38 38 37 37 37 38 38 38 37 38 37 38 37 36 37 38 38 38 39 39 40 41 41 41 41 41 41 42 42 42 43 44 45 46 47 47 47 47 47 46 46 46 47 47 47 48 48 49 49 51 52 52 53 56 59 61
35 34 33 33 27 32 35 37 35 34 31 29 33 36 37 38 37 37 37 39 41 40 37 32 34 35 37 38 36 37 36 36 36 37 38 37 37 37 37 37 37 37 37 37 37 37 38 38 38 39 40 40 39 39 40 39 39 40 40 41 43 44 45 45 46 45 46 47 47 47 47 46 46 46 46 46 47 48 48 48 49 50 51 52 53 57
37 36 30 32 27 31 35 35 38 31 20 28 37 39 39 37 37 37 37 38 39 39 37 37 35 36 36 36 35 35 35 36 37 38 38 37 36 36 36 36 36 36 37 37 37 37 38 38 39 39 40 40 40 40 39 39 39 39 40 40 41 43 43 43 44 45 45 46 46 47 47 46 46 46 45 46 46 47 47 47 48 49 49 49 49 50
35 35 31 33 30 31 34 36 27 22 22 35 38 38 38 38 37 37 37 37 37 37 37 35 35 35 36 35 35 35 35 36 37 37 36 37 36 36 35 35 36 36 36 37 38 38 39 40 41 41 41 39 38 39 38 38 37 37 37 39 40 41 42 43 43 44 45 45 46 46 46 46 46 45 45 45 46 46 46 46 47 47 47 47 47 48
34 31 31 31 31 32 30 29 21 23 35 37 38 39 39 38 38 38 36 36 37 37 36 35 35 34 34 35 35 35 35 35 35 35 36 36 36 35 36 36 37 37 37 37 38 39 39 40 40 41 41 40 38 37 36 37 37 36 37 38 39 40 41 42 43 42 43 44 45 45 46 46 46 46 45 45 45 45 45 46 46 46 47 47 47 47
35 31 30 30 33 26 27 28 30 34 35 36 36 37 36 36 37 35 32 34 37 37 36 34 34 34 34 34 34 34 33 33 32 33 35 36 37 37 37 37 37 37 37 37 38 39 41 40 40 41 40 40 40 40 40 38 37 36 35 34 35 37 39 41 42 41 42 44 44 45 45 45 45 45 45 45 45 44 45 45 45 45 45 46 46 46
37 30 32 29 29 30 27 27 28 27 26 30 37 40 40 43 42 40 36 34 38 37 36 34 33 33 33 33 33 32 33 32 31 31 34 36 37 37 37 38 38 37 37 38 38 39 39 40 39 40 39 40 40 40 38 38 38 36 35 34 33 34 36 38 40 41 41 43 44 44 45 45 45 45 45 45 44 45 45 45 45 45 45 45 44 44
35 36 34 27 28 29 26 23 24 23 29 35 37 39 41 41 41 41 36 33 36 36 35 35 34 33 33 32 32 34 35 31 30 31 33 36 36 37 37 37 37 37 38 39 39 38 38 38 38 36 37 38 38 38 39 39 39 37 36 36 35 35 35 37 39 41 40 42 43 44 44 44 45 45 45 44 45 45 45 45 45 45 45 44 44 44
35 29 27 26 29 28 26 23 25 28 29 36 38 39 37 39 42 38 28 30 36 36 35 35 34 33 33 34 35 36 35 30 29 30 34 36 37 38 37 37 37 36 36 37 37 37 38 37 35 37 38 38 38 39 38 38 38 38 37 36 36 36 35 36 38 39 40 42 43 44 44 44 44 45 45 45 45 45 44 44 44 44 44 44 43 43
30 30 28 26 26 28 27 27 27 29 34 38 38 38 38 41 40 29 24 33 37 36 35 35 34 34 34 35 36 34 33 33 31 32 35 36 36 37 37 37 36 36 36 36 36 37 35 35 35 35 36 36 37 38 38 37 38 38 38 38 38 37 36 36 36 39 41 42 43 43 43 43 43 44 44 45 45 45 44 44 44 44 44 43 43 43
30 30 29 29 26 25 25 23 26 30 36 38 39 39 40 39 29 26 36 39 37 36 36 35 35 36 36 36 35 34 33 32 33 34 35 36 36 36 36 35 35 35 35 36 37 37 36 35 36 36 36 36 36 37 37 37 37 37 37 38 38 39 37 36 34 36 39 41 42 43 42 43 44 44 45 45 44 44 43 43 43 43 43 42 42 42
32 29 25 27 29 29 27 26 24 25 33 40 40 37 39 34 35 37 38 38 38 37 36 36 36 37 36 35 35 34 33 34 34 35 36 37 36 36 35 35 35 34 34 35 35 34 34 34 35 35 36 35 36 35 35 36 36 36 37 37 39 39 38 37 36 34 37 40 42 42 42 43 44 44 44 44 44 43 43 43 43 43 42 42 41 41
36 28 27 28 32 22 25 24 26 34 36 40 39 33 38 38 38 39 37 36 36 36 37 36 36 36 35 34 34 34 35 35 36 37 37 37 37 38 36 35 34 34 34 33 33 33 33 33 34 34 35 34 34 34 34 34 34 34 34 35 37 38 38 38 37 35 35 36 39 41 42 41 41 42 42 42 43 43 42 42 42 41 41 41 40 40
35 33 35 27 34 31 28 32 34 37 39 40 40 39 39 40 40 39 39 37 37 37 37 36 35 36 36 36 35 35 34 35 35 36 35 36 36 35 35 35 35 35 35 35 33 33 33 32 34 33 33 33 34 33 32 33 35 35 35 35 35 35 37 38 38 38 36 35 35 36 36 39 39 39 40 40 40 40 40 40 40 39 40 40 39 39
35 35 37 35 34 36 37 38 39 39 39 39 39 39 39 39 39 39 38 37 38 38 37 36 36 36 36 36 35 35 36 36 36 36 36 35 34 34 35 34 34 34 34 34 34 32 31 32 33 33 34 33 33 33 34 34 33 34 35 34 34 33 35 37 38 38 37 35 35 35 33 36 36 36 38 40 39 39 38 38 38 37 38 39 38 38
35 34 34 32 34 32 32 38 38 38 38 38 38 39 39 39 39 39 38 38 38 38 37 37 36 36 35 35 35 35 35 35 35 35 35 34 34 34 34 34 34 34 34 33 34 34 33 32 31 32 33 34 34 33 33 34 33 33 33 33 33 34 34 34 37 37 38 37 36 37 36 37 36 35 36 38 37 38 38 38 38 38 37 37 38 38
32 36 33 32 32 30 34 36 38 38 38 38 37 37 38 38 39 39 38 39 38 38 37 36 36 35 35 35 35 34 34 34 33 33 33 33 33 33 32 33 33 34 35 35 34 33 33 33 33 33 33 33 34 33 33 32 32 31 32 32 31 32 33 35 35 35 36 37 37 36 36 36 33 34 35 37 37 37 37 38 37 37 37 37 37 38
34 35 30 33 34 33 36 37 37 37 37 37 38 38 38 38 38 38 38 38 37 37 36 36 36 35 35 34 34 34 33 33 33 33 32 32 32 33 33 33 34 34 34 34 34 34 34 33 32 34 33 32 33 33 33 33 32 31 33 32 31 32 33 34 34 35 35 36 37 36 36 36 36 36 36 36 37 37 37 37 38 37 39 39 37 37
31 30 33 33 32 32 33 35 36 34 33 36 36 37 37 38 37 37 37 36 36 36 35 35 34 34 34 34 34 33 33 32 33 33 31 31 32 33 34 33 33 33 33 33 33 33 33 34 34 33 32 32 32 32 31 31 31 31 29 29 30 31 32 32 32 34 34 35 36 37 36 37 36 36 36 35 36 37 38 34 35 36 38 38 35 35
31 34 33 30 30 31 35 36 38 37 36 36 36 36 37 37 37 36 36 35 35 35 34 33 33 33 33 33 33 33 33 32 32 33 33 32 33 33 33 32 32 32 32 32 31 31 32 32 32 33 30 28 30 30 30 30 30 30 30 29 29 30 31 31 31 30 31 32 35 36 36 36 36 36 35 35 35 36 35 37 36 34 35 35 35 35